Regional Weather Roundup
Issued by NWS

Home | Current Version | Previous Version | Text Only | Print | Product List | Glossary On
Versions: 1 2 3 4 5 6 7 8 9 10 11 12 13 14 15 16 17 18 19 20 21 22 23 24 25 26 27 28
000
ASUS46 KPQR 290510
RWROR

OREGON REGIONAL WEATHER ROUNDUP
NATIONAL WEATHER SERVICE PORTLAND OR
1000 PM PDT SUN MAY 28 2017

NOTE: "FAIR" INDICATES FEW OR NO CLOUDS BELOW 12,000 FEET WITH
NO SIGNIFICANT WEATHER AND/OR OBSTRUCTIONS TO VISIBILITY.

ORZ001>013-290600-
NORTHWEST OREGON


CITY           SKY/WX    TMP DP  RH WIND       PRES   REMARKS
ASTORIA        CLOUDY    53  49  86 W6        30.12S
NEWPORT        CLOUDY    54  52  94 CALM      30.16S
PORTLAND       PTCLDY    66  54  65 N6        30.03R
VANCOUVER WA   CLEAR     67  55  65 N5        30.03R
SCAPPOOSE      CLEAR     62  53  72 N12       30.03R
HILLSBORO      CLEAR     67  55  65 NW9       30.02R
AURORA         CLEAR     61  52  72 SW6       30.05R
MCMINNVILLE    CLEAR     55  49  80 SW12G21   30.05R
SALEM          CLEAR     57  50  77 W6        30.06R
CORVALLIS      CLEAR     54  48  82 W5        30.08R
EUGENE         CLEAR     55  52  89 SW10      30.09R
$$

ORZ021-028-290600-
SOUTHWEST OREGON


CITY           SKY/WX    TMP DP  RH WIND       PRES   REMARKS
NORTH BEND     CLOUDY    55  52  88 NE6       30.15S
BROOKINGS      CLOUDY    53  50  89 NE3       30.12S
ROSEBURG       CLEAR     64  53  67 N8        30.08R
SEXTON SUMMIT  CLEAR     58  52  80 N9        30.14R
MEDFORD        CLEAR     76  56  49 NW3       30.01R
$$

ORZ014>016-041-290600-
COLUMBIA GORGE


CITY           SKY/WX    TMP DP  RH WIND       PRES   REMARKS
TROUTDALE      CLEAR     70  56  61 NW3       30.02R
HOOD RIVER     CLEAR     68  54  60 CALM      29.99R
THE DALLES     CLEAR     75  56  51 W6        29.94R
$$

ORZ029>031-041-044-049-050-061>064-502-503-505>511-290600-
EASTERN OREGON


CITY           SKY/WX    TMP DP  RH WIND       PRES   REMARKS
REDMOND        CLEAR     71  37  28 NE6       30.06R
BEND           CLEAR     72  41  33 NW9       30.03R
PRINEVILLE     CLEAR     70  41  35 N6        30.06S
KLAMATH FALLS  CLEAR     65  43  44 W7        30.09R
HERMISTON      CLEAR     69  52  54 SE3       29.96S
PENDLETON      CLEAR     64  47  53 E7        30.01S
JOHN DAY       CLEAR     69  41  35 CALM      30.12R
MEACHAM        CLEAR     56  44  64 CALM      30.15F
LA GRANDE      CLEAR     64  45  48 SW7       30.09S
BAKER CITY     CLEAR     56  45  66 CALM      30.13R
BURNS          CLEAR     54  40  59 N6        30.14R
ROME             N/A     65  36  34 NE10      30.13R
ONTARIO        CLEAR     63  43  48 W5        30.07S
$$




USA.gov is the U.S. government's official web portal to all federal, state and local government web resources and services.